Regional Weather Roundup
Issued by NWS

Home | Current Version | Previous Version | Graphics & Text | Print | Product List | Glossary On
Versions: 1 2 3 4 5 6 7 8 9 10 11 12 13 14 15 16 17 18 19 20 21 22 23 24 25 26 27 28 29 30 31 32 33 34 35 36 37 38 39 40 41 42 43 44 45 46 47 48 49 50
000
ASUS43 KOAX 151802
RWRNE

WEATHER ROUNDUP FOR NEBRASKA
NATIONAL WEATHER SERVICE OMAHA NE
100 PM CDT MON SEP 15 2014

NOTES: SATELLITE DATA IS BEING USED TO AUGMENT CLOUD COVER ABOVE
       12000 FEET.
       "FAIR" INDICATES FEW OR NO CLOUDS BELOW 12,000 FEET WITH NO
       SIGNIFICANT WEATHER AND/OR OBSTRUCTIONS TO VISIBILITY.

  * THESE STATIONS DO NOT REPORT WEATHER SUCH AS RAIN...SNOW OR FOG.

NEZ001>004-019>022-054>056-151900-
NEBRASKA PANHANDLE

CITY           SKY/WX    TMP DP  RH WIND       PRES   REMARKS
SCOTTSBLUFF    SUNNY     60  45  57 SE9       30.31F
6HR MIN TEMP:  35; 6HR MAX TEMP:  60;

ALLIANCE       SUNNY     59  42  53 VRB3      30.31F
6HR MIN TEMP:  33; 6HR MAX TEMP:  59;

CHADRON        SUNNY     61  43  51 SW7       30.28F
6HR MIN TEMP:  33; 6HR MAX TEMP:  61;

KIMBALL        SUNNY     61  43  51 S7        30.31F
SIDNEY         SUNNY     60  42  51 SE7       30.34F
6HR MIN TEMP:  40; 6HR MAX TEMP:  60;

$$

NEZ057>060-069>072-079>082-151900-
SOUTHWEST NEBRASKA

CITY           SKY/WX    TMP DP  RH WIND       PRES   REMARKS
NORTH PLATTE   SUNNY     62  40  44 VRB7      30.31S
6HR MIN TEMP:  48; 6HR MAX TEMP:  63;

IMPERIAL       SUNNY     61  42  49 NE9       30.32F
6HR MIN TEMP:  51; 6HR MAX TEMP:  61;

LEXINGTON      SUNNY     62  45  53 N10G18    30.29F
MCCOOK         SUNNY     65  46  50 NE10G22   30.30F
6HR MIN TEMP:  52; 6HR MAX TEMP:  65;

OGALLALA       SUNNY     61  44  52 E6        30.32F
$$

NEZ005>010-023>029-035>040-094-151900-
NORTH CENTRAL NEBRASKA

CITY           SKY/WX    TMP DP  RH WIND       PRES   REMARKS
VALENTINE      SUNNY     61  35  37 NE8       30.31F
6HR MIN TEMP:  41; 6HR MAX TEMP:  62;

AINSWORTH      SUNNY     58  36  43 CALM      30.31S
BROKEN BOW     SUNNY     62  40  44 N9        30.30R
6HR MIN TEMP:  50; 6HR MAX TEMP:  62;

O`NEILL        SUNNY     60  40  48 N10G21    30.30S
ORD            SUNNY     62  43  49 N12G21    30.29R
6HR MIN TEMP:  49; 6HR MAX TEMP:  62;

THEDFORD       SUNNY     62  40  43 NE9       30.32S
$$

NEZ041-046>049-061>064-073>077-083>087-151900-
SOUTH CENTRAL NEBRASKA

CITY           SKY/WX    TMP DP  RH WIND       PRES   REMARKS
GRAND ISLAND   SUNNY     65  43  44 N12G28    30.27S
6HR MIN TEMP:  51; 6HR MAX TEMP:  65;

AURORA         SUNNY     64  42  45 N13G22    30.26S
HASTINGS       MOSUNNY   63  45  51 N16       30.27R
6HR MIN TEMP:  52; 6HR MAX TEMP:  63;

HEBRON         SUNNY     66  48  51 N14G22    30.23R
HOLDREGE       SUNNY     62  46  57 NE12G17   30.28S
KEARNEY *      SUNNY     63  45  51 N15       30.29S
YORK           MOSUNNY   63  48  59 NE16G25   30.26R
$$

NEZ011>018-030>034-042>045-151900-
NORTHEAST NEBRASKA

CITY           SKY/WX    TMP DP  RH WIND       PRES   REMARKS
NORFOLK        MOSUNNY   60  44  55 NE16G22   30.27R
6HR MIN TEMP:  51; 6HR MAX TEMP:  61;

ALBION         SUNNY     59  43  55 N15       30.28S
BLAIR          CLOUDY    60  49  66 N12G21    30.23R
COLUMBUS *     MOSUNNY   63  45  51 NE12G21   30.28R
FREMONT        PTSUNNY   62  47  56 N12G18    30.25R
TEKAMAH        PTSUNNY   63  47  55 N18       30.25R
6HR MIN TEMP:  53; 6HR MAX TEMP:  63;

WAYNE          PTSUNNY   61  45  55 N14G25    30.27S
$$

NEZ050>053-065>068-078-088>093-151900-
SOUTHEAST NEBRASKA

CITY           SKY/WX    TMP DP  RH WIND       PRES   REMARKS
LINCOLN        PTSUNNY   63  49  60 N23       30.24R
6HR MIN TEMP:  54; 6HR MAX TEMP:  66;

OMAHA EPPLEY   PTSUNNY   63  49  60 N14       30.22R
6HR MIN TEMP:  54; 6HR MAX TEMP:  64;

BEATRICE       SUNNY     66  51  58 N18       30.21R
FALLS CITY     CLOUDY    64  55  72 N12G24    30.17R
6HR MIN TEMP:  61; 6HR MAX TEMP:  67; 6HR PCP: TRACE;

NEBRASKA CITY  PTSUNNY   62  47  56 N14       30.21R
PLATTSMOUTH    PTSUNNY   60  50  68 N13       30.21R
$$

NEZ044-045-051>053-067-151900-
OMAHA AREA

CITY           SKY/WX    TMP DP  RH WIND       PRES   REMARKS
OMAHA EPPLEY   PTSUNNY   63  49  60 N14       30.22R
6HR MIN TEMP:  54; 6HR MAX TEMP:  64;

BLAIR          CLOUDY    60  49  66 N12G21    30.23R
FREMONT        PTSUNNY   62  47  56 N12G18    30.25R
MILLARD        PTSUNNY   62  50  64 N7G18     30.22R
OFFUTT AFB     PTSUNNY   61  53  74 N12       30.22R
PLATTSMOUTH    PTSUNNY   60  50  68 N13       30.21R
WAHOO          CLOUDY    62  48  58 N10G18    30.24S
$$



USA.gov is the U.S. government's official web portal to all federal, state and local government web resources and services.